,,,PA_Meas_PMT16A,,PR_Meas_QMR101_102,,RH_Meas_QMH101,,SR_Meas_QMS101,,TA_Meas_QMH101,,GenWind,,GenWind,
date,time,status,PA,status,PR,status,RH,status,SR,status,TA,status,DirAvg,status,SpdAvg,
2009-05-26, 00:00:04,VALID,999.417,VALID,0,VALID,94.2334,VALID,0,VALID,23.0183,VALID,281,VALID,0.555469,
2009-05-26, 00:01:04,VALID,999.411,VALID,0,VALID,94.2029,VALID,0,VALID,23.0573,VALID,264,VALID,0.242578,
2009-05-26, 00:02:04,VALID,999.385,VALID,0,VALID,94.0961,VALID,0,VALID,23.0573,VALID,264,VALID,0.315625,
2009-05-26, 00:03:04,VALID,999.392,VALID,0,VALID,94.0656,VALID,0,VALID,23.0964,VALID,263,VALID,0.447656,
2009-05-26, 00:04:04,VALID,999.358,VALID,0,VALID,94.0045,VALID,0,VALID,23.1159,VALID,263,VALID,0,
2009-05-26, 00:05:04,VALID,999.366,VALID,0,VALID,93.8825,VALID,0,VALID,23.1159,VALID,263,VALID,0,
2009-05-26, 00:06:04,VALID,999.348,VALID,0,VALID,93.8062,VALID,0,VALID,23.1159,VALID,263,VALID,0,
2009-05-26, 00:07:04,VALID,999.362,VALID,0,VALID,93.768,VALID,0,VALID,23.0964,VALID,263,VALID,0,
2009-05-26, 00:08:04,VALID,999.292,VALID,0,VALID,93.7909,VALID,0,VALID,23.1159,VALID,263,VALID,0,
2009-05-26, 00:09:04,VALID,999.29,VALID,0,VALID,93.7833,VALID,0,VALID,23.0964,VALID,263,VALID,0.00273437,
2009-05-26, 00:10:04,VALID,999.273,VALID,0,VALID,93.707,VALID,0,VALID,23.1159,VALID,264,VALID,0.494141,
2009-05-26, 00:11:04,VALID,999.263,VALID,0,VALID,93.6231,VALID,0,VALID,23.1159,VALID,299,VALID,0.653516,
2009-05-26, 00:12:04,VALID,999.256,VALID,0,VALID,93.5468,VALID,0,VALID,23.1159,VALID,311,VALID,0.576563,
2009-05-26, 00:13:04,VALID,999.236,VALID,0,VALID,93.5086,VALID,0,VALID,23.1159,VALID,311,VALID,0.512109,
2009-05-26, 00:14:04,VALID,999.229,VALID,0,VALID,93.3103,VALID,0,VALID,23.0964,VALID,332,VALID,0.785937,
2009-05-26, 00:15:04,VALID,999.253,VALID,0,VALID,93.3408,VALID,0,VALID,23.0964,VALID,332,VALID,0.617969,
2009-05-26, 00:16:04,VALID,999.229,VALID,0,VALID,93.4476,VALID,0,VALID,23.0769,VALID,332,VALID,0.4375,
2009-05-26, 00:17:04,VALID,999.233,VALID,0,VALID,93.5163,VALID,0,VALID,23.0981,VALID,332,VALID,0.205469,
2009-05-26, 00:18:04,VALID,999.26,VALID,0,VALID,93.4171,VALID,0,VALID,23.0769,VALID,332,VALID,0.423828,
2009-05-26, 00:19:04,VALID,999.257,VALID,0,VALID,93.5315,VALID,0,VALID,23.0769,VALID,84,VALID,0.923828,
2009-05-26, 00:20:04,VALID,999.232,VALID,0,VALID,93.5239,VALID,0,VALID,23.1159,VALID,108,VALID,0.552344,
2009-05-26, 00:21:04,VALID,999.198,VALID,0,VALID,93.356,VALID,0,VALID,23.1354,VALID,75,VALID,0.653516,
2009-05-26, 00:22:04,VALID,999.209,VALID,0,VALID,93.2568,VALID,0,VALID,23.1957,VALID,62,VALID,0.701953,
2009-05-26, 00:23:04,VALID,999.192,VALID,0,VALID,92.9822,VALID,0.112286,VALID,23.2134,VALID,66,VALID,0.701953,
2009-05-26, 00:24:04,VALID,999.159,VALID,0,VALID,92.265,VALID,0,VALID,23.2329,VALID,70,VALID,0.382813,
2009-05-26, 00:25:04,VALID,999.142,VALID,0,VALID,92.4328,VALID,0,VALID,23.2134,VALID,70,VALID,0.582422,
2009-05-26, 00:26:04,VALID,999.143,VALID,0,VALID,92.3794,VALID,0,VALID,23.2134,VALID,62,VALID,0.75625,
2009-05-26, 00:27:04,VALID,999.13,VALID,0,VALID,92.1658,VALID,0,VALID,23.2134,VALID,62,VALID,0.623047,
2009-05-26, 00:28:04,VALID,999.117,VALID,0,VALID,91.8835,VALID,0,VALID,23.1549,VALID,62,VALID,0.126953,
2009-05-26, 00:29:04,VALID,999.166,VALID,0,VALID,92.1887,VALID,0,VALID,23.1354,VALID,62,VALID,0.0941406,
2009-05-26, 00:30:04,VALID,999.148,VALID,0,VALID,92.5168,VALID,0,VALID,23.1549,VALID,183,VALID,0.419922,
2009-05-26, 00:31:04,VALID,999.104,VALID,0,VALID,92.6694,VALID,0,VALID,23.1549,VALID,191,VALID,0.221094,
2009-05-26, 00:32:04,VALID,999.12,VALID,0,VALID,92.7762,VALID,0,VALID,23.1744,VALID,191,VALID,0.334375,
2009-05-26, 00:33:04,VALID,999.139,VALID,0,VALID,92.7838,VALID,0,VALID,23.1744,VALID,191,VALID,0.524609,
2009-05-26, 00:34:04,VALID,999.123,VALID,0,VALID,92.9669,VALID,0,VALID,23.1549,VALID,99,VALID,0.559766,
2009-05-26, 00:35:04,VALID,999.104,VALID,0,VALID,93.0051,VALID,0.112286,VALID,23.1549,VALID,46,VALID,0.585547,
2009-05-26, 00:36:04,VALID,999.067,VALID,0,VALID,92.7151,VALID,0,VALID,23.1549,VALID,13,VALID,0.628906,
2009-05-26, 00:37:04,VALID,999.075,VALID,0,VALID,92.7533,VALID,0,VALID,23.1549,VALID,239,VALID,0.587891,
2009-05-26, 00:38:04,VALID,999.075,VALID,0,VALID,92.883,VALID,0,VALID,23.1549,VALID,217,VALID,0.331641,
2009-05-26, 00:39:04,VALID,999.032,VALID,0,VALID,92.8983,VALID,0,VALID,23.1549,VALID,217,VALID,0.117578,
2009-05-26, 00:40:04,VALID,998.987,VALID,0,VALID,92.8983,VALID,0,VALID,23.1549,VALID,217,VALID,0.124609,
2009-05-26, 00:41:04,VALID,999.057,VALID,0,VALID,92.8525,VALID,0,VALID,23.1354,VALID,217,VALID,0.416016,
2009-05-26, 00:42:04,VALID,999.041,VALID,0,VALID,93.0585,VALID,0,VALID,23.1566,VALID,217,VALID,0.590625,
2009-05-26, 00:43:04,VALID,999.02,VALID,0,VALID,93.1348,VALID,0,VALID,23.1957,VALID,217,VALID,0.149609,
2009-05-26, 00:44:04,VALID,998.984,VALID,0,VALID,93.0432,VALID,0,VALID,23.1957,VALID,217,VALID,0.00429688,
2009-05-26, 00:45:04,VALID,999.013,VALID,0,VALID,92.9135,VALID,0,VALID,23.1957,VALID,217,VALID,0.259375,
2009-05-26, 00:46:04,VALID,998.992,VALID,0,VALID,92.944,VALID,0,VALID,23.1549,VALID,217,VALID,0,
2009-05-26, 00:47:04,VALID,998.979,VALID,0,VALID,92.9593,VALID,0,VALID,23.1566,VALID,217,VALID,0,
2009-05-26, 00:48:04,VALID,998.975,VALID,0,VALID,92.9364,VALID,0,VALID,23.1354,VALID,217,VALID,0.0421875,
2009-05-26, 00:49:04,VALID,998.947,VALID,0,VALID,92.9364,VALID,0,VALID,23.1159,VALID,217,VALID,0.00273437,
2009-05-26, 00:50:04,VALID,998.923,VALID,0,VALID,92.8372,VALID,0,VALID,23.0769,VALID,217,VALID,0.441016,
2009-05-26, 00:51:04,VALID,998.923,VALID,0,VALID,93.1348,VALID,0,VALID,23.0786,VALID,217,VALID,0.528125,
2009-05-26, 00:52:04,VALID,998.861,VALID,0,VALID,93.3103,VALID,0,VALID,23.0769,VALID,5,VALID,0.794141,
2009-05-26, 00:53:04,VALID,998.867,VALID,0,VALID,93.2721,VALID,0,VALID,23.0378,VALID,5,VALID,0.981641,
2009-05-26, 00:54:04,VALID,998.891,VALID,0,VALID,93.0127,VALID,0,VALID,23.0183,VALID,22,VALID,0.789453,
2009-05-26, 00:55:04,VALID,998.909,VALID,0,VALID,92.9364,VALID,0,VALID,22.9811,VALID,71,VALID,0.549219,
2009-05-26, 00:56:04,VALID,998.92,VALID,0,VALID,93.234,VALID,0,VALID,22.9403,VALID,139,VALID,0.894141,
2009-05-26, 00:57:04,VALID,998.928,VALID,0,VALID,93.501,VALID,0,VALID,22.9615,VALID,139,VALID,0.569531,
2009-05-26, 00:58:04,VALID,998.911,VALID,0,VALID,93.6383,VALID,0,VALID,23.0006,VALID,139,VALID,0.482031,
2009-05-26, 00:59:04,VALID,998.919,VALID,0,VALID,93.6536,VALID,0,VALID,22.9793,VALID,139,VALID,0.475,
2009-05-26, 01:00:04,VALID,998.898,VALID,0,VALID,93.5239,VALID,0,VALID,22.9793,VALID,139,VALID,0.357422,
2009-05-26, 01:01:04,VALID,998.909,VALID,0,VALID,93.4476,VALID,0,VALID,23.0006,VALID,139,VALID,0.153516,
2009-05-26, 01:02:04,VALID,998.883,VALID,0,VALID,93.3713,VALID,0,VALID,22.9988,VALID,139,VALID,0.205078,
2009-05-26, 01:03:04,VALID,998.923,VALID,0,VALID,93.1348,VALID,0,VALID,22.9403,VALID,139,VALID,0.509766,
2009-05-26, 01:04:04,VALID,998.893,VALID,0,VALID,93.2721,VALID,0,VALID,22.9403,VALID,139,VALID,0.553125,
2009-05-26, 01:05:04,VALID,998.865,VALID,0,VALID,93.295,VALID,0,VALID,22.9208,VALID,139,VALID,0.259375,
2009-05-26, 01:06:04,VALID,998.829,VALID,0,VALID,92.822,VALID,0,VALID,22.8835,VALID,139,VALID,0.397266,
2009-05-26, 01:07:04,VALID,998.842,VALID,0,VALID,92.6694,VALID,0,VALID,22.7842,VALID,139,VALID,0.154687,
2009-05-26, 01:08:04,VALID,998.84,VALID,0,VALID,92.8296,VALID,0,VALID,22.7647,VALID,154,VALID,0.660937,
2009-05-26, 01:09:04,VALID,998.835,VALID,0,VALID,93.7604,VALID,0,VALID,22.825,VALID,146,VALID,0.845703,
2009-05-26, 01:10:04,VALID,998.806,VALID,0,VALID,94.0808,VALID,0,VALID,22.8623,VALID,88,VALID,0.760547,
2009-05-26, 01:11:04,VALID,998.759,VALID,0,VALID,93.974,VALID,0,VALID,22.8818,VALID,74,VALID,1.17227,
2009-05-26, 01:12:04,VALID,998.775,VALID,0,VALID,93.6688,VALID,0,VALID,22.9013,VALID,74,VALID,1.18477,
2009-05-26, 01:13:04,VALID,998.808,VALID,0,VALID,93.4247,VALID,0,VALID,22.8835,VALID,92,VALID,1.16289,
2009-05-26, 01:14:04,VALID,998.785,VALID,0,VALID,93.0203,VALID,0,VALID,22.8623,VALID,93,VALID,0.855469,
2009-05-26, 01:15:04,VALID,998.785,VALID,0,VALID,92.9288,VALID,0,VALID,22.8037,VALID,92,VALID,0.839453,
2009-05-26, 01:16:04,VALID,998.783,VALID,0,VALID,93.2416,VALID,0,VALID,22.8037,VALID,83,VALID,1.09648,
2009-05-26, 01:17:04,VALID,998.724,VALID,0,VALID,93.1043,VALID,0,VALID,22.7452,VALID,83,VALID,0.985547,
2009-05-26, 01:18:04,VALID,998.76,VALID,0,VALID,93.3942,VALID,0,VALID,22.7257,VALID,86,VALID,0.848828,
2009-05-26, 01:19:04,VALID,998.744,VALID,0,VALID,93.6536,VALID,0,VALID,22.7469,VALID,74,VALID,0.832812,
2009-05-26, 01:20:04,VALID,998.721,VALID,0,VALID,93.4781,VALID,0,VALID,22.6867,VALID,74,VALID,0.529297,
2009-05-26, 01:21:04,VALID,998.698,VALID,0,VALID,93.4628,VALID,0,VALID,22.6672,VALID,74,VALID,0.709766,
2009-05-26, 01:22:04,VALID,998.651,VALID,0,VALID,93.4247,VALID,0,VALID,22.6477,VALID,55,VALID,0.708594,
2009-05-26, 01:23:04,VALID,998.654,VALID,0,VALID,93.501,VALID,0,VALID,22.6087,VALID,44,VALID,0.789453,
2009-05-26, 01:24:04,VALID,998.674,VALID,0,VALID,93.5849,VALID,0,VALID,22.5696,VALID,44,VALID,0.722266,
2009-05-26, 01:25:04,VALID,998.693,VALID,0,VALID,93.5849,VALID,0,VALID,22.5306,VALID,44,VALID,0.411328,
2009-05-26, 01:26:04,VALID,998.667,VALID,0,VALID,93.6307,VALID,0,VALID,22.5111,VALID,44,VALID,0.262891,
2009-05-26, 01:27:04,VALID,998.66,VALID,0,VALID,93.852,VALID,0,VALID,22.5111,VALID,42,VALID,0.582031,
2009-05-26, 01:28:04,VALID,998.661,VALID,0,VALID,94.0198,VALID,0,VALID,22.5306,VALID,25,VALID,0.826953,
2009-05-26, 01:29:04,VALID,998.658,VALID,0,VALID,94.1571,VALID,0,VALID,22.5519,VALID,22,VALID,0.949219,
2009-05-26, 01:30:04,VALID,998.654,VALID,0,VALID,94.1724,VALID,0,VALID,22.5501,VALID,22,VALID,0.900391,
2009-05-26, 01:31:04,VALID,998.638,VALID,0,VALID,94.1877,VALID,0,VALID,22.5501,VALID,20,VALID,0.939844,
2009-05-26, 01:32:04,VALID,998.653,VALID,0,VALID,94.119,VALID,0,VALID,22.5289,VALID,12,VALID,0.955469,
2009-05-26, 01:33:04,VALID,998.639,VALID,0,VALID,94.1037,VALID,0,VALID,22.5306,VALID,12,VALID,0.913281,
2009-05-26, 01:34:04,VALID,998.633,VALID,0,VALID,94.0961,VALID,0,VALID,22.5111,VALID,12,VALID,1.06172,
2009-05-26, 01:35:04,VALID,998.619,VALID,0,VALID,94.1266,VALID,0,VALID,22.5111,VALID,12,VALID,1.07813,
2009-05-26, 01:36:04,VALID,998.576,VALID,0,VALID,94.2411,VALID,0,VALID,22.5111,VALID,12,VALID,1.10391,
2009-05-26, 01:37:04,VALID,998.581,VALID,0,VALID,94.1419,VALID,0,VALID,22.5306,VALID,12,VALID,1.1332,
2009-05-26, 01:38:04,VALID,998.569,VALID,0,VALID,94.1343,VALID,0,VALID,22.5111,VALID,13,VALID,0.909375,
2009-05-26, 01:39:04,VALID,998.577,VALID,0,VALID,94.1648,VALID,0,VALID,22.5111,VALID,13,VALID,0.582031,
2009-05-26, 01:40:04,VALID,998.553,VALID,0,VALID,94.1114,VALID,0,VALID,22.4916,VALID,13,VALID,0.203906,
2009-05-26, 01:41:04,VALID,998.537,VALID,0,VALID,94.058,VALID,0,VALID,22.4721,VALID,13,VALID,0,
2009-05-26, 01:42:04,VALID,998.514,VALID,0,VALID,94.0503,VALID,0,VALID,22.4526,VALID,13,VALID,0,
2009-05-26, 01:43:04,VALID,998.504,VALID,0,VALID,94.1343,VALID,0,VALID,22.4526,VALID,13,VALID,0,
2009-05-26, 01:44:04,VALID,998.513,VALID,0,VALID,94.1419,VALID,0,VALID,22.4721,VALID,13,VALID,0.19375,
2009-05-26, 01:45:04,VALID,998.461,VALID,0,VALID,94.2258,VALID,0,VALID,22.4526,VALID,13,VALID,0.215234,
2009-05-26, 01:46:04,VALID,998.45,VALID,0,VALID,94.3097,VALID,0,VALID,22.5128,VALID,13,VALID,0.313281,
2009-05-26, 01:47:04,VALID,998.41,VALID,0,VALID,94.47,VALID,0,VALID,22.5306,VALID,157,VALID,0.79375,
2009-05-26, 01:48:04,VALID,998.411,VALID,0,VALID,94.4928,VALID,0,VALID,22.5696,VALID,157,VALID,0.662109,
2009-05-26, 01:49:04,VALID,998.395,VALID,0,VALID,94.4547,VALID,0,VALID,22.6299,VALID,157,VALID,0.680469,
2009-05-26, 01:50:04,VALID,998.346,VALID,0,VALID,94.3403,VALID,0,VALID,22.6282,VALID,157,VALID,0.78125,
2009-05-26, 01:51:04,VALID,998.331,VALID,0,VALID,94.2792,VALID,0,VALID,22.6477,VALID,158,VALID,0.463672,
2009-05-26, 01:52:04,VALID,998.315,VALID,0,VALID,94.1877,VALID,0,VALID,22.6867,VALID,169,VALID,0.559375,
2009-05-26, 01:53:04,VALID,998.3,VALID,0,VALID,94.119,VALID,0,VALID,22.7257,VALID,181,VALID,0.520703,
2009-05-26, 01:54:04,VALID,998.288,VALID,0,VALID,93.9664,VALID,0,VALID,22.7452,VALID,181,VALID,0.740625,
2009-05-26, 01:55:04,VALID,998.296,VALID,0,VALID,93.8443,VALID,0,VALID,22.7647,VALID,181,VALID,0.503125,
2009-05-26, 01:56:04,VALID,998.293,VALID,0,VALID,93.7909,VALID,0,VALID,22.8037,VALID,181,VALID,0.361719,
2009-05-26, 01:57:04,VALID,998.264,VALID,0,VALID,93.6536,VALID,0,VALID,22.8037,VALID,181,VALID,0.311719,
2009-05-26, 01:58:04,VALID,998.238,VALID,0,VALID,93.5773,VALID,0,VALID,22.8445,VALID,178,VALID,0.548437,
2009-05-26, 01:59:04,VALID,998.22,VALID,0,VALID,93.4934,VALID,0,VALID,22.8427,VALID,177,VALID,0.804688,
2009-05-26, 02:00:04,VALID,998.229,VALID,0,VALID,93.3637,VALID,0,VALID,22.8835,VALID,174,VALID,0.780469,
2009-05-26, 02:01:04,VALID,998.237,VALID,0,VALID,93.2187,VALID,0,VALID,22.8818,VALID,173,VALID,0.875,
2009-05-26, 02:02:04,VALID,998.215,VALID,0,VALID,93.089,VALID,0,VALID,22.9013,VALID,172,VALID,0.947266,
2009-05-26, 02:03:04,VALID,998.203,VALID,0,VALID,92.9593,VALID,0,VALID,22.942,VALID,167,VALID,1.08711,
2009-05-26, 02:04:04,VALID,998.227,VALID,0,VALID,92.9288,VALID,0,VALID,22.9208,VALID,168,VALID,0.985937,
2009-05-26, 02:05:04,VALID,998.257,VALID,0,VALID,92.822,VALID,0,VALID,22.9403,VALID,174,VALID,0.996875,
2009-05-26, 02:06:04,VALID,998.219,VALID,0,VALID,92.7914,VALID,0,VALID,22.9598,VALID,170,VALID,1.08711,
2009-05-26, 02:07:04,VALID,998.214,VALID,0,VALID,92.6846,VALID,0,VALID,22.9811,VALID,167,VALID,1.17813,
2009-05-26, 02:08:04,VALID,998.203,VALID,0,VALID,92.4405,VALID,0,VALID,23.0396,VALID,167,VALID,1.08281,
2009-05-26, 02:09:04,VALID,998.19,VALID,0,VALID,92.0819,VALID,0,VALID,23.0378,VALID,167,VALID,1.01641,
2009-05-26, 02:10:04,VALID,998.152,VALID,0,VALID,91.8606,VALID,0,VALID,23.0769,VALID,160,VALID,0.981641,
2009-05-26, 02:11:04,VALID,998.154,VALID,0,VALID,91.7462,VALID,0,VALID,23.1176,VALID,148,VALID,0.922656,
2009-05-26, 02:12:04,VALID,998.138,VALID,0,VALID,91.5936,VALID,0,VALID,23.1176,VALID,151,VALID,0.778906,
2009-05-26, 02:13:04,VALID,998.146,VALID,0,VALID,91.6317,VALID,0,VALID,23.0964,VALID,152,VALID,0.741797,
2009-05-26, 02:14:04,VALID,998.179,VALID,0,VALID,91.7462,VALID,0,VALID,23.0981,VALID,144,VALID,0.703125,
2009-05-26, 02:15:04,VALID,998.142,VALID,0,VALID,91.8606,VALID,0,VALID,23.0573,VALID,133,VALID,0.598828,
2009-05-26, 02:16:04,VALID,998.168,VALID,0,VALID,91.8072,VALID,0,VALID,23.0183,VALID,112,VALID,0.735156,
2009-05-26, 02:17:04,VALID,998.179,VALID,0,VALID,91.8225,VALID,0,VALID,22.9988,VALID,108,VALID,0.708594,
2009-05-26, 02:18:04,VALID,998.147,VALID,0,VALID,91.792,VALID,0,VALID,22.9598,VALID,108,VALID,0.681641,
2009-05-26, 02:19:04,VALID,998.152,VALID,0,VALID,91.9293,VALID,0,VALID,22.9208,VALID,111,VALID,0.580859,
2009-05-26, 02:20:04,VALID,998.136,VALID,0,VALID,92.1277,VALID,0,VALID,22.903,VALID,114,VALID,0.412891,
2009-05-26, 02:21:04,VALID,998.152,VALID,0,VALID,92.4405,VALID,0,VALID,22.8623,VALID,122,VALID,0.479297,
2009-05-26, 02:22:04,VALID,998.136,VALID,0,VALID,92.5626,VALID,0,VALID,22.864,VALID,122,VALID,0.516016,
2009-05-26, 02:23:04,VALID,998.126,VALID,0,VALID,92.6388,VALID,0,VALID,22.8623,VALID,122,VALID,0.484375,
2009-05-26, 02:24:04,VALID,998.122,VALID,0,VALID,92.7457,VALID,0,VALID,22.825,VALID,122,VALID,0.285156,
2009-05-26, 02:25:04,VALID,998.113,VALID,0,VALID,92.7533,VALID,0,VALID,22.825,VALID,122,VALID,0.100781,
2009-05-26, 02:26:04,VALID,998.095,VALID,0,VALID,92.8067,VALID,0,VALID,22.8055,VALID,122,VALID,0,
2009-05-26, 02:27:04,VALID,998.072,VALID,0,VALID,92.8601,VALID,0,VALID,22.8072,VALID,122,VALID,0,
2009-05-26, 02:28:04,VALID,998.057,VALID,0,VALID,92.8143,VALID,0,VALID,22.7664,VALID,122,VALID,0,
2009-05-26, 02:29:04,VALID,998.03,VALID,0,VALID,92.7609,VALID,0,VALID,22.7487,VALID,122,VALID,0,
2009-05-26, 02:30:04,VALID,998.06,VALID,0,VALID,92.8525,VALID,0,VALID,22.6884,VALID,122,VALID,0,
2009-05-26, 02:31:04,VALID,998.034,VALID,0,VALID,93.0127,VALID,0,VALID,22.6884,VALID,122,VALID,0,
2009-05-26, 02:32:04,VALID,998.005,VALID,0,VALID,93.1577,VALID,0,VALID,22.6689,VALID,122,VALID,0,
2009-05-26, 02:33:04,VALID,998.06,VALID,0,VALID,93.2187,VALID,0,VALID,22.6689,VALID,122,VALID,0,
2009-05-26, 02:34:04,VALID,998.029,VALID,0,VALID,93.2721,VALID,0,VALID,22.6706,VALID,122,VALID,0,
2009-05-26, 02:35:04,VALID,998.069,VALID,0,VALID,93.3866,VALID,0,VALID,22.6494,VALID,122,VALID,0,
2009-05-26, 02:36:04,VALID,998.058,VALID,0,VALID,93.4934,VALID,0,VALID,22.6511,VALID,122,VALID,0,
2009-05-26, 02:37:04,VALID,998.056,VALID,0,VALID,93.5849,VALID,0,VALID,22.6494,VALID,111,VALID,0.530078,
2009-05-26, 02:38:04,VALID,998.025,VALID,0,VALID,93.6154,VALID,0,VALID,22.6689,VALID,92,VALID,0.658203,
2009-05-26, 02:39:04,VALID,998.046,VALID,0,VALID,93.5086,VALID,0,VALID,22.6867,VALID,80,VALID,0.646875,
2009-05-26, 02:40:04,VALID,998.008,VALID,0,VALID,92.7685,VALID,0,VALID,22.6477,VALID,79,VALID,0.535937,
2009-05-26, 02:41:04,VALID,997.998,VALID,0,VALID,92.738,VALID,0,VALID,22.5892,VALID,79,VALID,0.478516,
2009-05-26, 02:42:04,VALID,998.015,VALID,0,VALID,92.9745,VALID,0,VALID,22.5306,VALID,79,VALID,0.377734,
2009-05-26, 02:43:04,VALID,997.973,VALID,0,VALID,92.9059,VALID,0,VALID,22.4526,VALID,79,VALID,0.286719,
2009-05-26, 02:44:04,VALID,998.013,VALID,0,VALID,93.3484,VALID,0,VALID,22.4526,VALID,53,VALID,0.472656,
2009-05-26, 02:45:04,VALID,997.957,VALID,0,VALID,93.5544,VALID,0,VALID,22.4331,VALID,40,VALID,0.443359,
2009-05-26, 02:46:04,VALID,997.997,VALID,0,VALID,93.646,VALID,0,VALID,22.4331,VALID,356,VALID,0.672656,
2009-05-26, 02:47:04,VALID,998.016,VALID,0,VALID,93.7146,VALID,0,VALID,22.4331,VALID,356,VALID,0.607422,
2009-05-26, 02:48:04,VALID,998.047,VALID,0,VALID,93.7223,VALID,0,VALID,22.4136,VALID,356,VALID,0.425,
2009-05-26, 02:49:04,VALID,998.053,VALID,0,VALID,93.7375,VALID,0,VALID,22.4136,VALID,356,VALID,0.276172,
2009-05-26, 02:50:04,VALID,998.067,VALID,0,VALID,93.7223,VALID,0,VALID,22.4331,VALID,356,VALID,0.111719,
2009-05-26, 02:51:04,VALID,998.06,VALID,0,VALID,93.7604,VALID,0,VALID,22.4136,VALID,356,VALID,0.117578,
2009-05-26, 02:52:04,VALID,998.07,VALID,0,VALID,93.768,VALID,0,VALID,22.3941,VALID,356,VALID,0,
2009-05-26, 02:53:04,VALID,998.053,VALID,0,VALID,93.7757,VALID,0,VALID,22.3941,VALID,356,VALID,0,
2009-05-26, 02:54:04,VALID,998.07,VALID,0,VALID,93.7604,VALID,0,VALID,22.3746,VALID,356,VALID,0,
2009-05-26, 02:55:04,VALID,998.051,VALID,0,VALID,93.8825,VALID,0,VALID,22.3941,VALID,356,VALID,0.217969,
2009-05-26, 02:56:04,VALID,998.038,VALID,0,VALID,93.9588,VALID,0,VALID,22.4136,VALID,356,VALID,0.0984375,
2009-05-26, 02:57:04,VALID,998.071,VALID,0,VALID,94.058,VALID,0,VALID,22.4136,VALID,356,VALID,0,
2009-05-26, 02:58:04,VALID,998.072,VALID,0,VALID,94.0656,VALID,0,VALID,22.4136,VALID,356,VALID,0,
2009-05-26, 02:59:04,VALID,998.076,VALID,0,VALID,94.0961,VALID,0,VALID,22.4136,VALID,356,VALID,0,
2009-05-26, 03:00:04,VALID,998.067,VALID,0,VALID,94.1495,VALID,0,VALID,22.4331,VALID,356,VALID,0,
2009-05-26, 03:01:04,VALID,998.081,VALID,0,VALID,94.1877,VALID,0,VALID,22.4543,VALID,356,VALID,0,
2009-05-26, 03:02:04,VALID,998.059,VALID,0,VALID,94.18,VALID,0,VALID,22.4543,VALID,356,VALID,0,
2009-05-26, 03:03:04,VALID,998.056,VALID,0,VALID,94.1571,VALID,0,VALID,22.4331,VALID,356,VALID,0,
2009-05-26, 03:04:04,VALID,998.055,VALID,0,VALID,94.1266,VALID,0,VALID,22.4331,VALID,356,VALID,0,
2009-05-26, 03:05:04,VALID,998.046,VALID,0,VALID,94.0427,VALID,0,VALID,22.4331,VALID,356,VALID,0,
2009-05-26, 03:06:04,VALID,998.05,VALID,0,VALID,93.974,VALID,0,VALID,22.4136,VALID,356,VALID,0,
2009-05-26, 03:07:04,VALID,998.052,VALID,0,VALID,93.913,VALID,0,VALID,22.3941,VALID,356,VALID,0,
2009-05-26, 03:08:04,VALID,998.093,VALID,0,VALID,93.9054,VALID,0,VALID,22.3551,VALID,356,VALID,0,
2009-05-26, 03:09:04,VALID,998.082,VALID,0,VALID,93.9435,VALID,0,VALID,22.3356,VALID,356,VALID,0,
2009-05-26, 03:10:04,VALID,998.084,VALID,0,VALID,94.1037,VALID,0,VALID,22.3746,VALID,356,VALID,0,
2009-05-26, 03:11:04,VALID,998.099,VALID,0,VALID,94.058,VALID,0,VALID,22.4153,VALID,65,VALID,0.733984,
2009-05-26, 03:12:04,VALID,998.099,VALID,0,VALID,93.9206,VALID,0,VALID,22.3551,VALID,65,VALID,0.88125,
2009-05-26, 03:13:04,VALID,998.111,VALID,0,VALID,93.7604,VALID,0,VALID,22.3763,VALID,65,VALID,0.894141,
2009-05-26, 03:14:04,VALID,998.122,VALID,0,VALID,93.5468,VALID,0,VALID,22.3568,VALID,60,VALID,0.867578,
2009-05-26, 03:15:04,VALID,998.142,VALID,0,VALID,93.3866,VALID,0,VALID,22.2771,VALID,51,VALID,0.917578,
2009-05-26, 03:16:04,VALID,998.141,VALID,0,VALID,93.6765,VALID,0,VALID,22.2771,VALID,51,VALID,0.93125,
2009-05-26, 03:17:04,VALID,998.153,VALID,0,VALID,93.6994,VALID,0,VALID,22.2576,VALID,61,VALID,0.489453,
2009-05-26, 03:18:04,VALID,998.15,VALID,0,VALID,93.7985,VALID,0,VALID,22.2381,VALID,61,VALID,0.245312,
2009-05-26, 03:19:04,VALID,998.12,VALID,0,VALID,93.7604,VALID,0,VALID,22.2186,VALID,61,VALID,0.190625,
2009-05-26, 03:20:04,VALID,998.113,VALID,0,VALID,93.7223,VALID,0,VALID,22.1795,VALID,61,VALID,0,
2009-05-26, 03:21:04,VALID,998.079,VALID,0,VALID,93.8214,VALID,0,VALID,22.16,VALID,61,VALID,0,
2009-05-26, 03:22:04,VALID,998.096,VALID,0,VALID,93.9054,VALID,0,VALID,22.1795,VALID,61,VALID,0,
2009-05-26, 03:23:04,VALID,998.038,VALID,0,VALID,93.9511,VALID,0,VALID,22.16,VALID,61,VALID,0.0609375,
2009-05-26, 03:24:04,VALID,998.062,VALID,0,VALID,94.0198,VALID,0,VALID,22.1405,VALID,61,VALID,0.370703,
2009-05-26, 03:25:04,VALID,998.057,VALID,0,VALID,94.0808,VALID,0,VALID,22.1405,VALID,61,VALID,0.541016,
2009-05-26, 03:26:04,VALID,998.041,VALID,0,VALID,94.0198,VALID,0,VALID,22.1617,VALID,53,VALID,0.684766,
2009-05-26, 03:27:04,VALID,998.062,VALID,0,VALID,94.0808,VALID,0,VALID,22.1405,VALID,43,VALID,0.746094,
2009-05-26, 03:28:04,VALID,998.097,VALID,0,VALID,94.0351,VALID,0,VALID,22.1617,VALID,43,VALID,0.647266,
2009-05-26, 03:29:04,VALID,998.104,VALID,0,VALID,94.0198,VALID,0,VALID,22.1812,VALID,43,VALID,0.373828,
2009-05-26, 03:30:04,VALID,998.106,VALID,0,VALID,93.8825,VALID,0,VALID,22.16,VALID,43,VALID,0.382422,
2009-05-26, 03:31:04,VALID,998.126,VALID,0,VALID,93.7757,VALID,0,VALID,22.121,VALID,72,VALID,0.736328,
2009-05-26, 03:32:04,VALID,998.125,VALID,0,VALID,93.7985,VALID,0,VALID,22.1422,VALID,70,VALID,1.09961,
2009-05-26, 03:33:04,VALID,998.091,VALID,0,VALID,93.9435,VALID,0,VALID,22.1422,VALID,77,VALID,0.919922,
2009-05-26, 03:34:04,VALID,998.064,VALID,0,VALID,94.0961,VALID,0,VALID,22.1405,VALID,70,VALID,0.780078,
2009-05-26, 03:35:04,VALID,998.059,VALID,0,VALID,94.0274,VALID,0,VALID,22.1617,VALID,50,VALID,0.805078,
2009-05-26, 03:36:04,VALID,998.058,VALID,0,VALID,93.768,VALID,0,VALID,22.1227,VALID,46,VALID,0.616797,
2009-05-26, 03:37:04,VALID,998.112,VALID,0,VALID,93.7604,VALID,0,VALID,22.1032,VALID,46,VALID,0.400391,
2009-05-26, 03:38:04,VALID,998.094,VALID,0,VALID,93.7528,VALID,0,VALID,22.0625,VALID,46,VALID,0.565234,
2009-05-26, 03:39:04,VALID,998.1,VALID,0,VALID,94.0351,VALID,0,VALID,22.0625,VALID,64,VALID,1.10469,
2009-05-26, 03:40:04,VALID,998.048,VALID,0,VALID,94.1648,VALID,0,VALID,22.1032,VALID,46,VALID,1.86328,
2009-05-26, 03:41:04,VALID,998.011,VALID,0,VALID,94.0351,VALID,0,VALID,22.082,VALID,45,VALID,2.13086,
2009-05-26, 03:42:04,VALID,998.078,VALID,0,VALID,93.9817,VALID,0,VALID,22.0447,VALID,47,VALID,1.73438,
2009-05-26, 03:43:04,VALID,998.092,VALID,0,VALID,94.0198,VALID,0,VALID,22.0235,VALID,273,VALID,0.667969,
2009-05-26, 03:44:04,VALID,998.111,VALID,0,VALID,94.5005,VALID,0,VALID,22.1617,VALID,201,VALID,1.77344,
2009-05-26, 03:45:04,VALID,998.119,VALID,0,VALID,94.5386,VALID,0,VALID,22.2007,VALID,180,VALID,0.410547,
2009-05-26, 03:46:04,VALID,998.076,VALID,0,VALID,94.4852,VALID,0,VALID,22.1795,VALID,95,VALID,0.728125,
2009-05-26, 03:47:04,VALID,998.057,VALID,0,VALID,94.4928,VALID,0,VALID,22.2202,VALID,73,VALID,1.0043,
2009-05-26, 03:48:04,VALID,998.079,VALID,0,VALID,94.3631,VALID,0,VALID,22.2592,VALID,68,VALID,0.909375,